Location: Arleux
(50.3632°N, 2.8721°E)
Time: 03:36:32
(UTC+00:00)

Cosmos 1484 Rocket - Pass Details

Date: 15 December 2019
Orbit: 505 x 561 km, 97.4° (Epoch: 26 January)

Event Time Altitude Azimuth Distance (km) Brightness Sun altitude
Rises 05:52:21 0° 4° (N) 2,733 6.2 -16.3°
Reaches altitude 10° 05:54:44 10° 352° (N) 1,825 5.2 -16.0°
Enters shadow 05:56:26 20° 332° (NNW) 1,291 4.3 -15.7°
